Погода в Банджармасине

Индонезия     3°19′04″S   114°35′51″E
темп.,
°C
ветер,
м/с
пор.,
м/с
влажн.,
%
обл.,
%
осадки,
мм/ч
давл.,
гПа
погр.,
м
2 марта, вт
вт223:00+25ю117969 0.0 101124
02:00+25вюв118285 0.0 101024
05:00+25св1281100 0.0 100940
08:00+26с127693 0.0 1010206
11:00+32с235047 0.0 10111005
14:00+37сз134125 0.0 10081918
17:00+30ююз366574 0.0 1006493
20:00+27ю258271 0.0 1008163
3 марта, ср
ср323:00+26юв1487100 0.1 1010134
02:00+25юв1191100 1.4 101027
05:00+24юв1292100 0.2 100956
08:00+26всв119098 4.9 101171
11:00+25ссз2591100 6.6 1012212
14:00+23с3797100 11.5 1010362
17:00+23св2597100 2.5 1009240
20:00+23в1397100 3.3 1011130
4 марта, чт
чт423:00+23вюв2295100 0.1 101294
02:00+22ссз2597100 0.1 1011194
05:00+22св1197100 0.1 101047
08:00+24ссв1291100 0.1 1012168
11:00+31ссв125883 0.0 1012803
14:00+36сз014443 0.0 10091712
17:00+30юз356269 0.0 1007487
20:00+25ю128983 0.9 101048
5 марта, пт
пт523:00+24ююв129256 0.2 101159
02:00+24юв129470 0.3 101055
05:00+23вюв1194100 0.2 101023
08:00+25св1287100 0.7 1012133
11:00+31в016770 4.3 1011671
14:00+33юз125778 9.2 10081376
17:00+30з1376100 4.0 1008841
20:00+26з1187100 6.1 101024
6 марта, сб
сб623:00+24ссв2695100 1.1 1012228
02:00+23ссв2697100 1.5 1010247
05:00+23с1397100 0.8 1009148
08:00+24ссв2493100 0.8 1011293
11:00+30ссв246551 0.0 1011858
14:00+33с235642 0.4 10081409
17:00+30с236692 3.7 1007972
20:00+26ссв117996 4.8 100924